Back to catalog

COSMOS 2251 DEB

AliveLEO
NORAD 34590·DEBRIS·🇷🇺 Russia

Launched Jun 16, 1993 from Plesetsk Cosmodrome

Loading…

Next Passes (next 24 hours)

TLE

FreshSource: Space-Track

Epoch: Sep 14, 2026, 10:14 UTC

1 34590U 93036WC  26257.42674859  .00000241  00000-0  61037-4 0  9997
2 34590  74.0445 160.9060 0070053 221.2052 262.6032 14.55099968931301

Track COSMOS 2251 DEB in real time with AllMySat

Download on the App Store